Powrót do katalogu

MOLNIYA 3-41

AktywnyŁącznośćHEO
NORAD 21706·PAYLOAD·🇷🇺 Russia

Wystrzelony Sep 17, 1991 z Plesetsk Cosmodrome

Loading…

Następne Przeloty (najbliższe 24 godziny)

TLE

ŚwieżeSource: Space-Track

Epoka: Sep 13, 2026, 22:49 UTC

1 21706U 91065A   26256.95134298  .00000796  00000-0  50385-3 0  9995
2 21706  62.6098 305.2239 7417988 254.1688  19.6056  2.04504481258539

Śledź MOLNIYA 3-41 w czasie rzeczywistym z AllMySat

Download on the App Store